When you browse on this site, cookies collect data to enhance your experience and personalize the content and advertising you see.
Visit our Privacy Policy to learn more. By continuing to use the site, you agree to this use of cookies and data.
  • In Hungary
  • List of Countries
  • For 7 days
  • Water Temperature
  • Weather Map
  • News
  • Weather Widgets
  • user-avatar
    Login

    Hourly Weather Kuldiga

    Today, 10 December, Tuesday

    Time Temperature Precipitation Wind Pressure Humidity
    00:00 +5°C° 0 mm 5 mps 745 mmHg 83%
    01:00 +3°C° 0 mm 5 mps 745 mmHg 86%
    02:00 +3°C° 0.1 mm 5 mps 745 mmHg 87%
    03:00 +5°C° 0.1 mm 5 mps 746 mmHg 88%
    04:00 +5°C° 0.1 mm 5 mps 746 mmHg 89%
    05:00 +4°C° 0.4 mm 4 mps 746 mmHg 88%
    06:00 +4°C° 0.4 mm 3 mps 747 mmHg 86%
    07:00 +5°C° 0 mm 2 mps 748 mmHg 86%
    08:00 +5°C° 0.2 mm 2 mps 749 mmHg 87%
    09:00 +3°C° 0.2 mm 3 mps 750 mmHg 89%
    10:00 +3°C° 0.2 mm 3 mps 751 mmHg 90%
    11:00 +1°C° 0.6 mm 4 mps 752 mmHg 85%
    12:00 +1°C° 0.6 mm 4 mps 753 mmHg 80%
    13:00 0°C° 0.6 mm 4 mps 754 mmHg 75%
    14:00 0°C° 0 mm 4 mps 755 mmHg 76%
    15:00 0°C° 0 mm 3 mps 756 mmHg 76%
    16:00 0°C° 0 mm 3 mps 757 mmHg 77%
    17:00 +1°C° 0 mm 2 mps 758 mmHg 79%
    18:00 -1°C° 0 mm 2 mps 759 mmHg 82%
    19:00 +1°C° 0 mm 1 mps 759 mmHg 84%
    20:00 +1°C° 0 mm 1 mps 760 mmHg 83%
    21:00 +1°C° 0 mm 1 mps 760 mmHg 83%
    22:00 +1°C° 0 mm 1 mps 760 mmHg 82%
    23:00 +1°C° 0 mm 1 mps 760 mmHg 82%

    Tomorrow, 11 December, Wednesday

    Time Temperature Precipitation Wind Pressure Humidity
    00:00 -1°C° 0 mm 2 mps 761 mmHg 82%
    01:00 -1°C° 0 mm 2 mps 761 mmHg 83%
    02:00 -1°C° 0 mm 2 mps 760 mmHg 82%
    03:00 -1°C° 0 mm 3 mps 760 mmHg 81%
    04:00 -1°C° 0 mm 3 mps 759 mmHg 81%
    05:00 -1°C° 0 mm 3 mps 759 mmHg 79%
    06:00 -2°C° 0 mm 4 mps 759 mmHg 77%
    07:00 -2°C° 0 mm 4 mps 759 mmHg 75%
    08:00 -1°C° 0 mm 5 mps 758 mmHg 72%
    09:00 -1°C° 0 mm 5 mps 758 mmHg 69%
    10:00 -2°C° 0 mm 6 mps 757 mmHg 66%
    11:00 -2°C° 0 mm 6 mps 757 mmHg 63%
    12:00 -1°C° 0 mm 5 mps 757 mmHg 61%
    13:00 -1°C° 0 mm 5 mps 757 mmHg 58%
    14:00 -1°C° 0 mm 5 mps 756 mmHg 60%
    15:00 -1°C° 0 mm 5 mps 756 mmHg 62%
    16:00 -2°C° 0 mm 4 mps 756 mmHg 64%
    17:00 -2°C° 0 mm 4 mps 756 mmHg 64%
    18:00 -2°C° 0 mm 4 mps 756 mmHg 65%
    19:00 -2°C° 0 mm 4 mps 756 mmHg 66%
    20:00 -2°C° 0 mm 4 mps 756 mmHg 66%
    21:00 -3°C° 0 mm 4 mps 755 mmHg 66%
    22:00 -3°C° 0 mm 4 mps 755 mmHg 66%
    23:00 -3°C° 0 mm 4 mps 755 mmHg 65%

    Day after tomorrow, 12 December, Thursday

    Time Temperature Precipitation Wind Pressure Humidity
    00:00 -3°C° 0 mm 4 mps 755 mmHg 65%
    01:00 -3°C° 0 mm 4 mps 754 mmHg 64%
    02:00 -3°C° 0 mm 4 mps 754 mmHg 64%
    03:00 -3°C° 0 mm 4 mps 754 mmHg 64%
    04:00 -3°C° 0 mm 4 mps 753 mmHg 64%
    05:00 -3°C° 0 mm 4 mps 753 mmHg 68%
    06:00 -3°C° 0 mm 4 mps 753 mmHg 73%
    07:00 -4°C° 0 mm 5 mps 753 mmHg 78%
    08:00 -4°C° 0 mm 5 mps 752 mmHg 78%
    09:00 -4°C° 0 mm 5 mps 752 mmHg 78%
    10:00 -4°C° 0 mm 5 mps 752 mmHg 78%
    11:00 -4°C° 0 mm 5 mps 751 mmHg 76%
    12:00 -2°C° 0 mm 5 mps 751 mmHg 74%
    13:00 -2°C° 0 mm 4 mps 751 mmHg 72%
    14:00 -2°C° 0 mm 4 mps 750 mmHg 75%
    15:00 -2°C° 0 mm 4 mps 750 mmHg 79%
    16:00 -2°C° 0 mm 4 mps 749 mmHg 82%
    17:00 -2°C° 0 mm 4 mps 749 mmHg 83%
    18:00 -2°C° 0 mm 4 mps 749 mmHg 84%
    19:00 -2°C° 0 mm 4 mps 749 mmHg 85%
    20:00 -2°C° 0 mm 4 mps 748 mmHg 85%
    21:00 -2°C° 0 mm 4 mps 748 mmHg 85%
    22:00 -2°C° 0 mm 4 mps 748 mmHg 84%
    23:00 -1°C° 0 mm 4 mps 748 mmHg 85%

    13 December, Friday

    Time Temperature Precipitation Wind Pressure Humidity
    00:00 -1°C° 0 mm 5 mps 747 mmHg 87%
    01:00 -1°C° 0 mm 5 mps 747 mmHg 88%
    02:00 -1°C° 0 mm 4 mps 746 mmHg 89%
    03:00 -1°C° 0 mm 4 mps 746 mmHg 91%
    04:00 +1°C° 0 mm 3 mps 745 mmHg 92%
    05:00 0°C° 0.1 mm 4 mps 745 mmHg 93%
    06:00 0°C° 0.1 mm 4 mps 745 mmHg 94%
    07:00 0°C° 0.1 mm 4 mps 744 mmHg 95%
    08:00 0°C° 0.3 mm 4 mps 744 mmHg 96%
    09:00 +1°C° 0.3 mm 4 mps 744 mmHg 96%
    10:00 +1°C° 0.3 mm 4 mps 743 mmHg 96%
    11:00 0°C° 0.5 mm 4 mps 743 mmHg 96%
    12:00 0°C° 0.5 mm 4 mps 743 mmHg 96%
    13:00 0°C° 0.5 mm 4 mps 743 mmHg 96%
    14:00 0°C° 0.2 mm 4 mps 743 mmHg 96%
    15:00 0°C° 0.2 mm 4 mps 743 mmHg 95%
    16:00 +1°C° 0.2 mm 3 mps 743 mmHg 94%
    17:00 +1°C° 0 mm 3 mps 743 mmHg 93%
    18:00 +1°C° 0 mm 3 mps 744 mmHg 92%
    19:00 +1°C° 0 mm 3 mps 744 mmHg 91%
    20:00 +1°C° 0 mm 3 mps 744 mmHg 91%
    21:00 0°C° 0 mm 3 mps 744 mmHg 92%
    22:00 0°C° 0 mm 3 mps 745 mmHg 92%
    23:00 0°C° 0 mm 3 mps 745 mmHg 93%

    14 December, Saturday

    Time Temperature Precipitation Wind Pressure Humidity
    00:00 +1°C° 0 mm 3 mps 745 mmHg 93%
    01:00 +1°C° 0 mm 3 mps 745 mmHg 94%
    02:00 0°C° 0 mm 4 mps 745 mmHg 93%
    03:00 0°C° 0 mm 4 mps 745 mmHg 92%
    04:00 +1°C° 0 mm 4 mps 744 mmHg 91%
    05:00 +1°C° 0 mm 4 mps 744 mmHg 91%
    06:00 +1°C° 0 mm 4 mps 744 mmHg 90%
    07:00 +1°C° 0 mm 4 mps 744 mmHg 90%
    08:00 +3°C° 0.1 mm 4 mps 743 mmHg 91%
    09:00 +2°C° 0.1 mm 5 mps 743 mmHg 92%
    10:00 +2°C° 0.1 mm 5 mps 743 mmHg 93%
    11:00 +2°C° 0.1 mm 5 mps 743 mmHg 88%
    12:00 +2°C° 0.1 mm 5 mps 742 mmHg 83%
    13:00 +2°C° 0.1 mm 5 mps 742 mmHg 78%
    14:00 +1°C° 0 mm 5 mps 742 mmHg 79%
    15:00 +1°C° 0 mm 5 mps 741 mmHg 81%
    16:00 +1°C° 0 mm 5 mps 741 mmHg 82%
    17:00 +1°C° 0 mm 6 mps 741 mmHg 83%
    18:00 +1°C° 0 mm 6 mps 741 mmHg 84%
    19:00 +1°C° 0 mm 6 mps 740 mmHg 85%
    20:00 +1°C° 0.2 mm 6 mps 740 mmHg 87%
    21:00 +1°C° 0.2 mm 6 mps 740 mmHg 89%
    22:00 0°C° 0.2 mm 7 mps 740 mmHg 92%
    23:00 +2°C° 0.8 mm 6 mps 740 mmHg 91%

    15 December, Sunday

    Time Temperature Precipitation Wind Pressure Humidity
    00:00 +2°C° 0.8 mm 6 mps 740 mmHg 91%
    01:00 +2°C° 0.8 mm 6 mps 740 mmHg 90%
    02:00 +2°C° 0.3 mm 6 mps 740 mmHg 89%
    03:00 +2°C° 0.3 mm 6 mps 740 mmHg 87%
    04:00 +1°C° 0.3 mm 6 mps 740 mmHg 85%
    05:00 +1°C° 1 mm 6 mps 741 mmHg 85%
    06:00 +1°C° 1 mm 6 mps 741 mmHg 85%
    07:00 +1°C° 1 mm 6 mps 741 mmHg 85%
    08:00 +2°C° 0.2 mm 6 mps 741 mmHg 82%
    09:00 +2°C° 0.2 mm 6 mps 742 mmHg 79%
    10:00 +2°C° 0.2 mm 6 mps 742 mmHg 76%
    11:00 +2°C° 0.3 mm 6 mps 743 mmHg 76%
    12:00 +3°C° 0.3 mm 7 mps 743 mmHg 77%
    13:00 +2°C° 0.3 mm 8 mps 744 mmHg 77%
    14:00 +3°C° 0.1 mm 7 mps 744 mmHg 76%
    15:00 +2°C° 0.1 mm 7 mps 745 mmHg 76%
    16:00 +2°C° 0.1 mm 6 mps 746 mmHg 75%
    17:00 +1°C° 0 mm 6 mps 746 mmHg 76%
    18:00 +1°C° 0 mm 6 mps 745 mmHg 76%
    19:00 +1°C° 0 mm 5 mps 745 mmHg 76%
    20:00 +1°C° 0.2 mm 5 mps 745 mmHg 79%
    21:00 +2°C° 0.2 mm 6 mps 745 mmHg 81%
    22:00 +2°C° 0.2 mm 6 mps 744 mmHg 84%
    23:00 +3°C° 0 mm 7 mps 744 mmHg 80%
    Show more